Location: Koszewko
(53.2876°N, 14.9061°E)
Time: 01:53:27
(UTC+00:00)

Cosmos 2369 Rocket - Pass Details

Date: 03 March 2021
Orbit: 829 x 852 km, 71.0° (Epoch: 11 April)

Event Time Altitude Azimuth Distance (km) Brightness Sun altitude
Rises 21:28:09 0° 327° (NNW) 3,385 6.3 -38.6°
Reaches altitude 10° 21:30:35 10° 328° (NNW) 2,449 5.3 -38.8°
Enters shadow 21:32:55 26° 328° (NNW) 1,594 4.1 -39.0°
